Location: Bothwell
(42.3833°S, 147.0000°E)
Time: 23:46:27
(UTC+10:00)

Envisat - Pass Details

Date: 28 February 2024
Orbit: 762 x 764 km, 98.3° (Epoch: 24 April)

Event Time Altitude Azimuth Distance (km) Brightness Sun altitude
Exits shadow 03:08:16 37° 130° (SE) 1,198 4.3 -34.0°
Drops below altitude 10° 03:12:19 10° 178° (S) 2,333 6.1 -33.6°
Sets 03:14:46 0° 185° (S) 3,267 6.9 -33.4°
